Zurück zum Katalog

METEOR 2-17 DEB

AktivPO
NORAD 28994·DEBRIS·🇷🇺 Russia

Gestartet Jan 30, 1988 von Plesetsk Cosmodrome

Loading…

Nächste Überflüge (nächste 24 Stunden)

TLE

AktuellSource: Space-Track

Epoche: Sep 12, 2026, 14:44 UTC

1 28994U 88005J   26255.61455061  .00000430  00000-0  25810-3 0  9997
2 28994  82.5456 200.1417 0018171 313.3777 165.8371 14.04898410672485

Verfolge METEOR 2-17 DEB in Echtzeit mit AllMySat

Download on the App Store